Regional Weather Roundup
Issued by NWS

Home | Current Version | Previous Version | Text Only | Print | Product List | Glossary Off
Versions: 1 2 3 4 5 6 7 8 9 10 11 12 13 14 15 16 17 18 19 20 21 22 23 24 25 26 27 28 29 30 31 32 33 34 35 36 37 38 39 40 41 42 43 44 45 46 47 48 49 50

000
ASUS43 KMKX 192100
RWRWI

WISCONSIN REGIONAL WEATHER ROUNDUP
NATIONAL WEATHER SERVICE MILWAUKEE/SULLIVAN WI
300 PM CST MON FEB 19 2018

NOTE: "FAIR" INDICATES FEW OR NO CLOUDS BELOW 12,000 FEET WITH NO
SIGNIFICANT WEATHER AND/OR OBSTRUCTIONS TO VISIBILITY.

WIZ001-002-006>008-014>016-023>028-192200-
NORTHWEST WISCONSIN

CITY           SKY/WX    TMP DP  RH WIND       PRES   REMARKS
SUPERIOR ARPT  LGT SNOW  18  15  89 NE13G21   30.06F VSB 1   WCI   4
ASHLAND        SNOW      18  14  84 NE18G28   30.05F VSB 1/2 WCI   2
HAYWARD        LGT SNOW  19  12  74 NE18G30   29.94F WCI   4
SIREN          LGT SNOW  19  14  81 NE13      29.94F WCI   6
CUMBERLAND     LGT SNOW  21  16  79 NE16G25   29.87F WCI   7
RICE LAKE      LGT SNOW  22  19  88 NE16      29.89S WCI   8
CHETEK         LGT SNOW  22  18  85 NE8G16    29.87F WCI  12
LADYSMITH      CLOUDY    21  17  84 NE15G23   29.89S FOG     WCI   8
EAU CLAIRE     LGT SNOW  23  20  88 NE14G25   29.83S FOG     WCI  11
MENOMONIE      LGT SNOW  24  21  86 NE15G22   29.85R WCI  12
NEW RICHMOND   LGT SNOW  22  18  83 NE21      29.84F WCI   7
OSCEOLA        LGT SNOW  22  18  85 NE15G23   29.91F WCI   9
$$

WIZ003>005-009-010-017-018-192200-
NORTH CENTRAL WISCONSIN

CITY           SKY/WX    TMP DP  RH WIND       PRES   REMARKS
MANITOWISH WTR LGT SNOW  17  16  95 NE9       29.92F VSB 1   WCI   6
ARBOR VITAE    LGT SNOW  20  17  87 NE12G17   29.90F WCI   8
WOODRUFF       LGT SNOW  20  17  87 NE12G17   29.90F WCI   8
RHINELANDER    LGT SNOW  21  18  88 NE12G20   29.88F FOG     WCI   9
EAGLE RIVER    LGT SNOW  19  15  84 NE14G21   29.90F WCI   6
LAND O LAKES   LGT SNOW  19  15  85 NE13G18   29.94F WCI   6
PHILLIPS       CLOUDY    18  15  88 NE10G20   29.88S WCI   7
TOMAHAWK       LGT SNOW  21  18  87 NE7G21    29.88F VSB 1   WCI  13
MEDFORD        MIX PCPN  23  20  89 NE17      29.81F WCI   9
MERRILL        LGT SNOW  24  21  89 NE12G17   29.86S WCI  13
$$

WIZ029-030-035-036-043>047-192200-
CENTRAL WISCONSIN

CITY           SKY/WX    TMP DP  RH WIND       PRES   REMARKS
WAUSAU         CLOUDY    26  20  77 NE17G24   29.84R WCI  13
MOSINEE        CLOUDY    28  25  86 NE18      29.85R WCI  16
MARSHFIELD     CLOUDY    28  25  88 NE21G28   29.79S WCI  15
STEVENS POINT  CLOUDY    29  27  91 E14G22    29.83S WCI  19
WAUPACA        CLOUDY    33  28  82 NE13G20   29.85R WCI  24
WAUTOMA        CLOUDY    33  29  85 NE21G26   29.81S WCI  21
WISC RAPIDS    MIX PCPN  32  26  78 E16G28    29.82R WCI  21
CAMP DOUGLAS   CLOUDY    36  34  92 E8        29.76S FOG     WCI  30
$$

WIZ011>013-019>022-031-037>040-048>050-192200-
NORTHEAST WISCONSIN

CITY           SKY/WX    TMP DP  RH WIND       PRES   REMARKS
ANTIGO         MIX PCPN  23  20  89 NE16G23   29.85F WCI  10
SHAWANO        CLOUDY    30  24  78 NE14      29.89S WCI  19
OCONTO         CLOUDY    28  22  78 N10G17    29.91S WCI  19
STURGEON BAY   CLOUDY    29  25  85 N13       29.91S WCI  19
GREEN BAY      LGT SNOW  28  23  81 NE32G40   29.89R WCI  12
MANITOWOC      MIX PCPN  32  30  92 NE12G23   29.87R FOG     WCI  23
APPLETON       CLOUDY    28  23  80 NE21G31   29.84R WCI  15
CLINTONVILLE   CLOUDY    29  23  78 NE9G20    29.88R WCI  21
OSHKOSH        CLOUDY    31  28  89 NE17G25   29.83R WCI  19
$$

WIZ032>034-041-042-053>061-192200-
SOUTHWEST WISCONSIN

CITY           SKY/WX    TMP DP  RH WIND       PRES   REMARKS
LA CROSSE      CLOUDY    39  32  76 NE9G20    29.75R WCI  33
SPARTA         CLOUDY    37  32  84 E12       29.75F WCI  29
VIROQUA        CLOUDY    37  37 100 E14G20    29.70F WCI  28
BOSCOBEL       LGT RAIN  39  38  96 NE5       29.73R FOG
PRAIRIE DU CHI LGT RAIN  37  36  95 CALM      29.71S
PLATTEVILLE    CLOUDY    37  37 100 E12       29.70S WCI  30
$$

WIZ056-057-062-063-064-067-068-192200-
SOUTH CENTRAL WISCONSIN

CITY           SKY/WX    TMP DP  RH WIND       PRES   REMARKS
REEDSBURG      CLOUDY    37  36  97 E15G22    29.75R FOG     WCI  28
BARABOO/DELLS  CLOUDY    37  34  89 E15G24    29.76R FOG     WCI  28
LONE ROCK      NOT AVBL
MINERAL POINT  RAIN      39  39 100 E9        29.70R WCI  33
MADISON        LGT RAIN  38  37  97 E12G21    29.76S FOG     WCI  30
MIDDLETON      CLOUDY    39  39 100 E6        29.75R
WATERTOWN      LGT RAIN  38  38 100 E10       29.78R WCI  31
MONROE         LGT RAIN  37  37 100 E7        29.71S VSB<1/4 WCI  32
JANESVILLE     CLOUDY    39  39 100 E12       29.73S FOG     WCI  32
$$

WIZ051-052-058>065-066-070>072-192200-
SOUTHEAST WISCONSIN

CITY           SKY/WX    TMP DP  RH WIND       PRES   REMARKS
MILWAUKEE      RAIN      38  37  97 N7        29.80F VSB 1/4 WCI  33
WAUKESHA       NOT AVBL
MILWAUKEE/TIMM DRIZZLE   36  32  87 NE10G17   29.81S WCI  28
RACINE         LGT RAIN  38  37  97 NE10      29.80R FOG     WCI  31
BURLINGTON     MIX PCPN  39  37  95 NE12      29.76S WCI  31
KENOSHA        LGT RAIN  39  37  92 N7        29.78R VSB 3/4 WCI  34
FOND DU LAC    LGT RAIN  37  31  78 E16G28    29.82R WCI  28
SHEBOYGAN      LGT RAIN  33  33 100 NE20G30   29.84R FOG     WCI  21
WEST BEND      LGT RAIN  36  34  93 NE12G18   29.80S WCI  27
JUNEAU         DRIZZLE   38  34  86 NE13G18   29.79R WCI  30
$$

LSZ147-162-192200-
LAKE SUPERIOR

STATION/POSITION TIME  TEMP    WIND        PRES    WAVE
                       AIR SEA DIR/SP/G            HT/PER
                 (UTC) (F)     (DEG/KT/KT) (MB)    (FT/S)
DEVILS ISLAND    2000   17      50/ 26/ 29 1021.0S
SAXON HARBOR     2030   18      50/ 24/ 28 1017.3S
$$

LMZ867-665-643>646-192200-
LAKE MICHIGAN

STATION/POSITION TIME  TEMP    WIND        PRES    WAVE
                       AIR SEA DIR/SP/G            HT/PER
                 (UTC) (F)     (DEG/KT/KT) (MB)    (FT/S)
NORTHPORT PIER   2040   28                 1013.9F
KEWAUNEE LAKESHO 2030   31      30/ 14/ 22 1011.3R
SHEBOYGAN LAKESH 2000   34      20/ 21/ 24 1010.9F
PORT WASHINGTON  2040   36      50/ 15/ 19 1010.5F
MILWAUKEE LAKESH 2030   36      30/ 11/ 12   N/A
KENOSHA   LAKESH 2000   35      30/  6/  7 1008.5
$$

TC  - TEMPERATURE IN CELSIUS
VSB - VISIBILITY IN STATUTE MILES
WCI - WIND CHILL INDEX
HX  - HEAT INDEX





USA.gov is the U.S. government's official web portal to all federal, state and local government web resources and services.